| time (UTC) | temp C | wind direction | speed KPH | gust KPH | rain 1hr cm | rain 24hr cm | rain mn cm | humidity % | barometer mb |
| 20260504180014 | 5 | 260 | 20.9 | 37.0 | 0.00 | 1.37 | 0.46 | 85 | 999.4 |
| 20260504174509 | 5 | 240 | 17.7 | 29.0 | 0.00 | 1.37 | 0.46 | 87 | 999.0 |
| 20260504173014 | 5 | 257 | 16.1 | 29.0 | 0.00 | 1.37 | 0.46 | 87 | 998.7 |
| 20260504171505 | 5 | 261 | 20.9 | 32.2 | 0.00 | 1.37 | 0.46 | 88 | 998.4 |
| 20260504081517 | 2 | 257 | 8.0 | 14.5 | 0.05 | 1.14 | 0.23 | 96 | 977.2 |
| 20260504050123 | 4 | 4 | 1.6 | 6.4 | 0.00 | 0.91 | 0.00 | 88 | 975.5 |
| 20260504044551 | 4 | 278 | 0.0 | 9.7 | 0.00 | 0.91 | 0.00 | 87 | 975.8 |
| 20260504043052 | 5 | 212 | 0.0 | 9.7 | 0.00 | 0.91 | 0.00 | 87 | 976.1 |
| 20260504041546 | 5 | 27 | 6.4 | 14.5 | 0.00 | 0.91 | 0.00 | 85 | 976.7 |
| 20260504040042 | 5 | 190 | 3.2 | 19.3 | 0.00 | 0.91 | 0.00 | 84 | 977.2 |
| 20260504034548 | 5 | 98 | 8.0 | 38.6 | 0.00 | 0.91 | 0.00 | 85 | 977.3 |
| 20260504033043 | 5 | 55 | 3.2 | 20.9 | 0.00 | 0.91 | 0.00 | 86 | 977.5 |
| 20260504031549 | 5 | 195 | 12.9 | 35.4 | 0.00 | 0.91 | 0.00 | 87 | 978.0 |
| 20260504030040 | 5 | 291 | 9.7 | 25.7 | 0.00 | 0.91 | 0.00 | 86 | 977.7 |
| 20260504024533 | 5 | 81 | 12.9 | 33.8 | 0.00 | 0.91 | 0.91 | 86 | 977.3 |
| 20260504023029 | 5 | 98 | 6.4 | 43.5 | 0.00 | 0.91 | 0.91 | 85 | 978.7 |
| 20260504021528 | 5 | 287 | 8.0 | 49.9 | 0.00 | 0.91 | 0.91 | 84 | 979.2 |
| 20260504020030 | 5 | 96 | 30.6 | 69.2 | 0.00 | 0.91 | 0.91 | 83 | 979.6 |
| 20260504014526 | 5 | 90 | 53.1 | 106.2 | 0.03 | 0.91 | 0.91 | 84 | 979.3 |
| 20260504013027 | 5 | 89 | 64.4 | 117.5 | 0.05 | 0.91 | 0.91 | 84 | 980.3 |
| 20260504011524 | 5 | 92 | 62.8 | 107.8 | 0.05 | 0.91 | 0.91 | 85 | 980.4 |
| 20260504010022 | 5 | 94 | 64.4 | 107.8 | 0.08 | 0.91 | 0.91 | 86 | 981.6 |
| 20260504004523 | 5 | 110 | 70.8 | 111.0 | 0.10 | 0.89 | 0.89 | 86 | 981.1 |
| 20260504003019 | 5 | 102 | 66.0 | 107.8 | 0.10 | 0.86 | 0.86 | 89 | 981.8 |
| 20260504001517 | 5 | 130 | 51.5 | 90.1 | 0.10 | 0.86 | 0.86 | 93 | 983.5 |
| 20260504000015 | 4 | 103 | 56.3 | 103.0 | 0.08 | 0.84 | 0.84 | 93 | 984.5 |
| 20260503234511 | 5 | 18 | 43.5 | 77.2 | 0.03 | 0.79 | 0.79 | 93 | 985.8 |
| 20260503233007 | 5 | 73 | 16.1 | 37.0 | 0.10 | 0.76 | 0.76 | 95 | 987.9 |
| 20260503231505 | 4 | 55 | 16.1 | 37.0 | 0.20 | 0.76 | 0.76 | 95 | 989.4 |
| 20260503230001 | 4 | 39 | 19.3 | 37.0 | 0.25 | 0.76 | 0.76 | 97 | 991.3 |
| 20260503224559 | 3 | 15 | 6.4 | 17.7 | 0.28 | 0.76 | 0.76 | 96 | 992.1 |
| 20260503223056 | 3 | 43 | 9.7 | 16.1 | 0.28 | 0.69 | 0.69 | 95 | 993.0 |
| 20260503221552 | 3 | 45 | 6.4 | 12.9 | 0.25 | 0.56 | 0.56 | 95 | 994.1 |
| 20260503220051 | 3 | 14 | 6.4 | 14.5 | 0.23 | 0.51 | 0.51 | 95 | 994.6 |
| 20260503214556 | 3 | 323 | 4.8 | 29.0 | 0.20 | 0.48 | 0.48 | 94 | 994.8 |
| 20260503213117 | 3 | 49 | 16.1 | 43.5 | 0.15 | 0.41 | 0.41 | 93 | 994.5 |
| 20260503211613 | 4 | 28 | 19.3 | 43.5 | 0.08 | 0.30 | 0.30 | 89 | 995.4 |
| 20260503210043 | 5 | 21 | 16.1 | 25.7 | 0.13 | 0.28 | 0.28 | 92 | 996.0 |
| 20260503204557 | 5 | 46 | 16.1 | 25.7 | 0.18 | 0.28 | 0.28 | 91 | 996.5 |
| 20260503203039 | 5 | 18 | 16.1 | 33.8 | 0.20 | 0.25 | 0.25 | 89 | 997.6 |
| 20260503201533 | 5 | 29 | 14.5 | 24.1 | 0.23 | 0.23 | 0.23 | 89 | 998.5 |
| 20260503200031 | 5 | 6 | 12.9 | 29.0 | 0.15 | 0.15 | 0.15 | 87 | 999.2 |
| 20260503194528 | 5 | 16 | 16.1 | 35.4 | 0.10 | 0.10 | 0.10 | 84 | 1000.1 |
| 20260503193024 | 6 | 51 | 12.9 | 38.6 | 0.05 | 0.05 | 0.05 | 80 | 1001.2 |
| 20260503191519 | 6 | 44 | 24.1 | 45.1 | 0.00 | 0.00 | 0.00 | 71 | 1002.4 |
| 20260503190016 | 8 | 31 | 9.7 | 43.5 | 0.00 | 0.00 | 0.00 | 63 | 1002.9 |
| 20260503184516 | 8 | 97 | 12.9 | 40.2 | 0.00 | 0.00 | 0.00 | 55 | 1003.2 |
| 20260503183013 | 9 | 72 | 27.4 | 46.7 | 0.00 | 0.00 | 0.00 | 50 | 1004.2 |
| 20260503181513 | 10 | 107 | 27.4 | 45.1 | 0.00 | 0.00 | 0.00 | 42 | 1004.4 |